Location: Madrid
(40.4000°N, 3.6830°W)
Time: 15:44:39
(UTC+02:00)

ISS - Pass Details

Date: 27 March 2020
Orbit: 416 x 423 km, 51.6° (Epoch: 02 April)

Event Time Altitude Azimuth Distance (km) Brightness Sun altitude
Rises 20:38:50 0° 299° (WNW) 2,358 1.8 -12.9°
Reaches altitude 10° 20:42:00 10° 332° (NNW) 1,496 -0.3 -13.4°
Maximum altitude 20:43:27 12° 357° (N) 1,367 -0.9 -13.7°
Drops below altitude 10° 20:44:54 10° 23° (NNE) 1,497 -1.0 -14.0°
Enters shadow 20:46:15 - 41° (NE) 1,802 -0.8 -14.2°
